TimeAKST,TemperatureF,Dew PointF,Humidity,Sea Level PressureIn,VisibilityMPH,Wind Direction,Wind SpeedMPH,Gust SpeedMPH,PrecipitationIn,Events,Conditions,WindDirDegrees,DateUTC
12:53 AM,37.9,36.0,93,30.24,10.0,SSE,10.4,-,0.00,Rain,Light Rain,160,2013-02-14 09:53:00
1:53 AM,37.0,37.0,100,30.25,5.0,SSE,9.2,-,0.00,Rain,Light Rain,160,2013-02-14 10:53:00
3:53 AM,37.9,37.9,100,30.23,7.0,SSE,9.2,-,N/A,,Overcast,160,2013-02-14 12:53:00
4:53 AM,37.9,37.9,100,30.21,7.0,SSE,6.9,-,N/A,,Overcast,160,2013-02-14 13:53:00
5:53 AM,37.9,37.9,100,30.22,6.0,South,5.8,-,N/A,,Overcast,170,2013-02-14 14:53:00
6:53 AM,37.9,37.9,100,30.22,10.0,South,5.8,-,0.01,Rain,Light Rain,170,2013-02-14 15:53:00
7:53 AM,39.0,39.0,100,30.22,10.0,South,5.8,-,0.04,Rain,Light Rain,170,2013-02-14 16:53:00
8:53 AM,39.0,39.0,100,30.22,10.0,South,8.1,-,0.04,Rain,Light Rain,170,2013-02-14 17:53:00
9:53 AM,39.0,39.0,100,30.22,3.0,SSE,8.1,-,0.02,Rain,Light Rain,160,2013-02-14 18:53:00
10:53 AM,39.9,39.9,100,30.21,3.0,SSE,10.4,-,0.04,Rain,Light Rain,150,2013-02-14 19:53:00
11:53 AM,39.9,39.9,100,30.22,3.0,SSE,11.5,-,0.03,Rain,Light Rain,150,2013-02-14 20:53:00
12:53 PM,41.0,41.0,100,30.21,3.0,SE,15.0,-,0.05,Rain,Light Rain,140,2013-02-14 21:53:00
1:10 PM,41.0,41.0,100,30.19,2.0,SE,15.0,-,0.02,Rain,Light Rain,140,2013-02-14 22:10:00
1:53 PM,42.1,42.1,100,30.21,2.0,SSE,13.8,-,0.08,Rain,Light Rain,150,2013-02-14 22:53:00
2:53 PM,42.1,42.1,100,30.19,3.0,SSE,15.0,-,0.10,Rain,Light Rain,150,2013-02-14 23:53:00
3:53 PM,42.1,42.1,100,30.18,3.0,SE,16.1,-,0.08,Rain,Rain,140,2013-02-15 00:53:00
4:53 PM,42.1,42.1,100,30.17,3.0,SE,21.9,-,0.10,Rain,Light Rain,130,2013-02-15 01:53:00
5:51 PM,42.8,42.8,100,30.15,2.0,SE,19.6,25.3,0.08,Rain,Light Rain,130,2013-02-15 02:51:00
5:53 PM,43.0,43.0,100,30.16,2.0,SE,19.6,25.3,0.08,Rain,Light Rain,130,2013-02-15 02:53:00
6:53 PM,44.1,44.1,100,30.15,3.0,SE,20.7,27.6,0.08,Rain,Light Rain,130,2013-02-15 03:53:00
7:53 PM,45.0,45.0,100,30.13,3.0,SE,19.6,-,0.05,Rain,Light Rain,130,2013-02-15 04:53:00
8:53 PM,45.0,45.0,100,30.13,4.0,SE,20.7,-,0.14,Rain,Light Rain,130,2013-02-15 05:53:00
9:53 PM,45.0,45.0,100,30.13,3.0,ESE,21.9,-,0.11,Rain,Light Rain,120,2013-02-15 06:53:00
10:33 PM,46.4,46.4,100,30.12,5.0,SE,21.9,34.5,0.02,Rain,Light Rain,140,2013-02-15 07:33:00
10:53 PM,46.0,46.0,100,30.14,5.0,SE,21.9,28.8,0.03,Rain,Light Rain,130,2013-02-15 07:53:00
11:53 PM,46.9,46.9,100,30.15,5.0,SE,18.4,29.9,0.03,Rain,Light Rain,130,2013-02-15 08:53:00